Flag for Barbados Weather past 2 weeks in Bridgetown, Barbados

Now
77 °F

Partly sunny.


Feels Like: 78 °F
Forecast: 82 / 84 °F
Wind: 2 mph from North

Location: Grantley Adams

Current Time: Sep 19, 2014 at 4:14:11 PM

Latest Report: Sep 19, 2014 at 4:00 PM


Visibility: 5 mi

Pressure: 29.89 "Hg

Humidity: 94%

Dew point: 75 °F

Location of BridgetownLocation

Historic Weather in Bridgetown — Graph

°F

Bridgetown temperature yesterday

Maximum temperature yesterday: 86 °F (at 10:00 AM)
Minimum temperature yesterday: 77 °F (at 1:00 PM)
Average temperature yesterday: 81 °F

Past Weeks' High & Low Weather Summary

 TemperatureHumidityPressure
High88 °F (Sep 4, 3:00 PM)100% (Sep 19, 10:00 AM)30.04 "Hg (Sep 19, 10:00 AM)
Low73 °F (Sep 19, 10:00 AM)59% (Sep 9, 12:00 PM)29.86 "Hg (Sep 10, 4:00 PM)
Average82 °F81%29.93 "Hg
* Reported Sep 4 3:00 PM — Sep 19 3:00 PM, Bridgetown, Weather by CustomWeather, © 2014

Note: Actual official high and low records may vary slightly from our data, if they occured in-between our weather recording intervals... More about our weather records

Advertising

Bridgetown weather history for previous 24 hours

 ConditionsComfort  
Time TempWeatherWind HumidityBarometerVisibility
3:00 PM
Sep 19
77 °FBroken clouds.5 mph94%29.89 "Hg5 mi
2:00 PM75 °FSprinkles. Broken clouds.9 mph94%29.92 "Hg5 mi
1:00 PM77 °FScattered showers. Broken clouds.10 mph94%29.95 "Hg5 mi
12:00 PM77 °FWarm.2 mph89%29.98 "HgN/A
11:00 AM75 °FScattered showers. Broken clouds.8 mph100%29.98 "HgN/A
10:00 AM73 °FLight rain. Broken clouds.8 mph100%29.98 "HgN/A
9:00 AM75 °FRain showers. Broken clouds.13 mph94%30.01 "Hg3 mi
8:00 AM77 °FRain showers. Broken clouds.5 mph89%29.95 "Hg3 mi
7:00 AM77 °FBroken clouds.15 mph83%29.92 "HgN/A
6:00 AM81 °FBroken clouds.14 mph89%29.89 "HgN/A
5:00 AM81 °FPartly cloudy.13 mph89%29.86 "HgN/A
4:00 AM81 °FSprinkles. Passing clouds.14 mph89%29.86 "HgN/A
3:00 AM81 °FPassing clouds.14 mph89%29.86 "HgN/A
2:00 AM81 °FPartly cloudy.10 mph79%29.86 "HgN/A
1:00 AM81 °FPartly cloudy.14 mph89%29.89 "HgN/A
12:00 AM81 °FPartly cloudy.14 mph89%29.92 "HgN/A
11:00 PM
Sep 18
81 °FPartly cloudy.13 mph89%29.95 "HgN/A
10:00 PM79 °FPartly cloudy.13 mph89%29.95 "HgN/A
9:00 PM79 °FPassing clouds.9 mph89%29.95 "HgN/A
8:00 PM79 °FPassing clouds.13 mph89%29.92 "HgN/A
7:00 PM79 °FPartly cloudy.10 mph89%29.89 "HgN/A
6:00 PM77 °FPassing clouds.12 mph94%29.89 "HgN/A
5:00 PM79 °FPartly sunny.14 mph89%29.89 "HgN/A
4:00 PM81 °FScattered showers. Broken clouds.20 mph89%29.89 "Hg2 mi
Weather by CustomWeather, © 2014

See weather overviewHow to use our weather pages